Yankton, SD

5:45 AM CST on December 14, 2019 (GMT -0600)
Gurney Municipal

Weather History for KYKN - October, 2019

Change the Weather History Date:

Tuesday, October 1, 2019

  Actual Average Record
Temperature  
Mean Temperature 52 °F -  
Max Temperature 57 °F 73 °F 92 °F (1952)
Min Temperature 48 °F 43 °F 25 °F (1974)
Degree Days  
Heating Degree Days 12    
Growing Degree Days 2 (Base 50)    
Moisture  
Dew Point 50 °F    
Average Humidity 96    
Maximum Humidity 100    
Minimum Humidity 87    
Precipitation  
Precipitation 0.93 in - - ()
Sea Level Pressure  
Sea Level Pressure 29.99 in    
Wind  
Wind Speed 11 mph (North)    
Max Wind Speed 16 mph    
Max Gust Speed 21 mph    
Visibility 7 miles    
Events Rain , Thunderstorm    
Averages and records for this station are not official NWS values.
T = Trace of Precipitation, MM = Missing Value Source: NWS Daily Summary

Daily Weather History Graph

Daily Weather History Graph

Search for Another Location

Airport or City:

Astronomy

Oct. 01, 2019 Rise Set
Actual Time 7:26 AM CDT 7:11 PM CDT
Civil Twilight 6:58 AM CDT 7:39 PM CDT
Nautical Twilight 6:25 AM CDT 8:12 PM CDT
Astronomical Twilight 5:52 AM CDT 8:45 PM CDT
Moon 10:48 AM CDT (10/1) 9:20 PM CDT (10/1)
Length of Visible Light 12h 40m
Length of Day
11h 44m
Waxing Crescent, 12% of the Moon is Illuminated
Oct 1
Waxing Crescent
Oct 5
First Quarter
Oct 13
Full
Oct 21
Last Quarter
Oct 27
New

Hourly Weather History & Observations

Time (CDT) Temp. Dew Point Humidity Pressure Visibility Wind Dir Wind Speed Gust Speed Precip Events Conditions
12:51 AM 57.2 °F 55.4 °F 94% 29.94 in 10.0 mi NNW 10.4 mph - 0.05 in Rain Light Rain
12:56 AM 57.0 °F 55.0 °F 93% 29.96 in 10.0 mi NNW 10.4 mph - 0.05 in   Overcast
12:59 AM 57.2 °F 55.4 °F 94% 29.96 in 10.0 mi NNW 9.2 mph - N/A   Mostly Cloudy
1:13 AM 55.4 °F 55.4 °F 100% 29.93 in 10.0 mi North 13.8 mph - N/A   Overcast
1:56 AM 55.9 °F 54.0 °F 93% 29.96 in 10.0 mi NNW 8.1 mph - 0.00 in Rain , Thunderstorm Light Rain
2:24 AM 55.4 °F 53.6 °F 94% 29.91 in 7.0 mi NNE 16.1 mph - 0.18 in Rain Heavy Rain
2:56 AM 55.0 °F 54.0 °F 96% 29.95 in 10.0 mi North 11.5 mph - 0.23 in Rain Light Rain
3:03 AM 55.4 °F 53.6 °F 94% 29.94 in 10.0 mi North 13.8 mph - 0.00 in Rain Light Rain
3:13 AM 55.4 °F 53.6 °F 94% 29.93 in 10.0 mi North 11.5 mph - 0.01 in Rain Light Rain
3:49 AM 53.6 °F 53.6 °F 100% 29.95 in 10.0 mi North 12.7 mph - 0.02 in Rain Light Rain
3:56 AM 54.0 °F 53.1 °F 97% 29.98 in 10.0 mi North 12.7 mph - 0.02 in Rain Light Rain
4:10 AM 53.6 °F 53.6 °F 100% 29.96 in 10.0 mi NNW 15.0 mph 20.7 mph 0.00 in Rain Light Rain
4:17 AM 53.6 °F 51.8 °F 94% 29.95 in 10.0 mi North 13.8 mph - 0.00 in Rain Light Rain
4:56 AM 53.1 °F 51.1 °F 93% 30.00 in 10.0 mi North 10.4 mph - 0.00 in Rain Light Rain
5:06 AM 53.6 °F 51.8 °F 94% 29.97 in 7.0 mi North 11.5 mph - 0.00 in Rain Light Rain
5:52 AM 51.8 °F 51.8 °F 100% 29.96 in 5.0 mi North 12.7 mph - 0.03 in Rain Light Rain
5:56 AM 52.0 °F 51.1 °F 97% 29.99 in 5.0 mi North 10.4 mph - 0.03 in Rain Light Rain
6:43 AM 51.8 °F 50.0 °F 94% 29.98 in 4.0 mi NNW 10.4 mph - 0.02 in Rain Light Rain
6:56 AM 52.0 °F 50.0 °F 93% 30.02 in 4.0 mi NNW 11.5 mph - 0.02 in Rain Light Rain
7:56 AM 51.1 °F 50.0 °F 96% 30.03 in 7.0 mi North 10.4 mph - 0.02 in Rain Light Rain
8:56 AM 50.0 °F 48.9 °F 96% 30.02 in 10.0 mi NNE 10.4 mph - 0.00 in Rain Light Rain
9:56 AM 50.0 °F 48.0 °F 93% 30.01 in 10.0 mi NNE 11.5 mph - 0.00 in   Overcast
10:17 AM 50.0 °F 46.4 °F 87% 30.01 in 8.0 mi NE 16.1 mph - N/A   Overcast
10:56 AM 48.9 °F 48.0 °F 97% 30.04 in 3.0 mi NNE 12.7 mph - 0.01 in Rain Light Rain
11:26 AM 48.2 °F 48.2 °F 100% 29.98 in 4.0 mi NNE 13.8 mph - 0.05 in Rain Rain
11:47 AM 48.2 °F 48.2 °F 100% 30.01 in 5.0 mi North 8.1 mph - 0.09 in Rain Light Rain
11:56 AM 48.9 °F 48.0 °F 97% 30.05 in 5.0 mi North 12.7 mph - 0.12 in Rain Heavy Rain
12:11 PM 48.2 °F 48.2 °F 100% 29.99 in 5.0 mi NNE 6.9 mph - 0.05 in Rain Light Rain
12:45 PM 50.0 °F 48.2 °F 94% 30.01 in 4.0 mi NNW 9.2 mph - 0.12 in Rain , Thunderstorm Light Rain
12:56 PM 50.0 °F 48.9 °F 96% 30.05 in 5.0 mi NNW 9.2 mph - 0.12 in Rain , Thunderstorm Light Rain
1:06 PM 48.2 °F 48.2 °F 100% 30.01 in 5.0 mi North 10.4 mph - 0.01 in Rain Light Rain
1:23 PM 48.2 °F 48.2 °F 100% 30.01 in 6.0 mi North 9.2 mph - 0.03 in Rain Light Rain
1:40 PM 48.2 °F 48.2 °F 100% 29.99 in 5.0 mi NNE 12.7 mph - 0.06 in Rain Rain
1:56 PM 48.9 °F 48.0 °F 97% 30.03 in 8.0 mi North 10.4 mph - 0.07 in Rain Light Rain
2:43 PM 48.2 °F 46.4 °F 93% 29.96 in 10.0 mi North 11.5 mph - 0.05 in Rain Rain
2:56 PM 48.9 °F 46.9 °F 93% 30.01 in 10.0 mi North 10.4 mph - 0.11 in Rain Heavy Rain
3:11 PM 48.2 °F 46.4 °F 93% 29.97 in 10.0 mi North 12.7 mph - 0.02 in Rain Light Rain
3:23 PM 48.2 °F 46.4 °F 93% 29.96 in 10.0 mi NE 13.8 mph 20.7 mph 0.04 in Rain Rain
3:56 PM 48.0 °F 46.9 °F 96% 30.02 in 10.0 mi NE 11.5 mph - 0.06 in Rain Light Rain
4:47 PM 48.2 °F 48.2 °F 100% 29.96 in 9.0 mi NE 6.9 mph - 0.03 in Rain Light Rain
4:56 PM 48.9 °F 48.0 °F 97% 30.02 in 6.0 mi NNE 8.1 mph - 0.03 in Rain Light Rain
5:37 PM 48.2 °F 48.2 °F 100% 29.98 in 1.8 mi North 6.9 mph - 0.02 in Rain Light Rain
5:48 PM 48.2 °F 48.2 °F 100% 29.98 in 2.5 mi North 9.2 mph - 0.02 in Rain Light Rain
5:56 PM 48.9 °F 48.0 °F 97% 30.03 in 2.5 mi North 9.2 mph - 0.03 in Rain Light Rain
6:13 PM 48.2 °F 48.2 °F 100% 29.98 in 4.0 mi North 8.1 mph - 0.00 in Rain Light Rain
6:56 PM 48.9 °F 48.0 °F 97% 30.03 in 6.0 mi North 9.2 mph - 0.01 in Rain Light Rain
7:56 PM 48.9 °F 48.0 °F 97% 30.05 in 10.0 mi North 10.4 mph - 0.00 in   Overcast
8:56 PM 48.9 °F 48.0 °F 97% - - North - - 0.00 in   Unknown
9:56 PM - - N/A% - - North - - N/A   Unknown
10:56 PM - - N/A% - - North - - N/A   Unknown
11:56 PM - - N/A% - - North - - N/A   Unknown